[[[{"header":{"parameterUnit":"kt","parameterCategory":2,"dx":1,"dy":1,"la1":30.253999710083008,"la2":30.299108505249023,"lo1":-89.0895004272461,"lo2":-89.04439544677734,"nx":28,"ny":28,"refTime":"2022-10-28T21:00:00:Z","depth":"0","parameterNumber":2,"parameterNumberName":"U-component_of_CURRENTS"},"data":[0.4359,0.4362,0.4309,0.4187,0.414,0.3998,0.3918,0.3784,0.3764,0.3586,0.3505,0.3548,0.3584,0.3361,0.3058,0.2985,0.2626,0.2382,0.2437,0.3014,0.3077,0.3137,0.2983,0.2535,0.2534,0.1311,0.1301,0.1294,0.4298,0.4299,0.4347,0.4316,0.4288,0.431,0.4328,0.4227,0.4142,0.4249,0.425,0.4217,0.4115,0.4148,0.4069,0.3824,0.3547,0.3625,0.3072,0.3047,0.3932,0.3798,0.3516,0.3516,0.3517,0.3517,0.3517,0.3518,0.4252,0.4268,0.4318,0.4313,0.4379,0.4362,0.4315,0.4417,0.4465,0.4507,0.4746,0.4704,0.4826,0.4897,0.4845,0.4613,0.4609,0.4386,0.4335,0.4051,0.382,0.4744,0.4762,0.4765,0.4768,0.477,0.4773,0,0.4187,0.42,0.4241,0.4272,0.4332,0.4366,0.4456,0.4521,0.4672,0.4784,0.4927,0.4986,0.5217,0.5143,0.5229,0.5195,0.4836,0.5145,0.4917,0.4287,0.3848,0.3729,0.4723,0.4774,0.4778,0.478,0.4782,0.4784,0.4161,0.4167,0.4195,0.4232,0.424,0.4299,0.4375,0.4473,0.4589,0.4841,0.4946,0.5156,0.5239,0.5422,0.5436,0.5436,0.5181,0.5224,0.5076,0.4785,0.4696,0.437,0.4265,0.4822,0.4817,0.4813,0.481,0,0.4169,0.4164,0.4183,0.421,0.4218,0.4257,0.4359,0.4463,0.4581,0.4758,0.4812,0.504,0.5192,0.5259,0.5382,0.5371,0.5199,0.5424,0.5119,0.5087,0.4804,0.4719,0.4386,0.426,0.5431,0.5432,0.5432,0,0.4157,0.4169,0.4166,0.4176,0.4217,0.4251,0.4339,0.4398,0.4544,0.4679,0.477,0.4911,0.5007,0.5138,0.5138,0.5244,0.5308,0.5212,0.5218,0.4973,0.4946,0.4732,0.4632,0.5291,0.529,0.5289,0.5288,0,0.4146,0.4156,0.4164,0.4175,0.4217,0.4243,0.4281,0.4401,0.4488,0.4619,0.4729,0.4835,0.4935,0.4996,0.5069,0.5023,0.5239,0.5177,0.5168,0.5164,0.4962,0.4934,0.4801,0.5286,0.5286,0.5286,0.5285,0,0.4133,0.4143,0.4147,0.4189,0.4202,0.4214,0.4325,0.4364,0.4499,0.4568,0.4675,0.4728,0.4825,0.4785,0.4941,0.4893,0.4926,0.4954,0.4961,0.4918,0.4865,0.4732,0.4804,0.4549,0.4988,0.4986,0.4984,0,0.4131,0.4132,0.4149,0.4168,0.4184,0.4232,0.427,0.4339,0.4414,0.4498,0.4564,0.4632,0.4614,0.4645,0.4709,0.476,0.4819,0.4725,0.4865,0.4868,0.4824,0.4942,0.4677,0.4776,0.4953,0.4956,0.4958,0,0.4142,0.4152,0.416,0.4156,0.4197,0.423,0.4264,0.4332,0.4376,0.4427,0.4499,0.4543,0.4583,0.4594,0.4589,0.4646,0.4762,0.4641,0.4643,0.4691,0.4943,0.4902,0.4919,0.4789,0.4793,0.4796,0.4934,0,0.4142,0.4146,0.4167,0.4157,0.4193,0.4229,0.425,0.4286,0.4302,0.433,0.4417,0.4427,0.4476,0.4484,0.4463,0.456,0.456,0.4549,0.4521,0.4595,0.4641,0.466,0.4414,0.4412,0.4411,0.4411,0,0,0.414,0.4137,0.4164,0.417,0.4193,0.421,0.4218,0.4231,0.4247,0.4283,0.4272,0.4337,0.4338,0.4395,0.4412,0.4411,0.4455,0.4412,0.4544,0.4559,0.4573,0.4621,0.4641,0.4409,0.4409,0.4408,0.4408,0,0.4138,0.4149,0.4147,0.4168,0.4193,0.4197,0.421,0.4218,0.4226,0.4251,0.4231,0.4275,0.4303,0.4319,0.4328,0.4391,0.4413,0.4406,0.4451,0.4533,0.4549,0.4563,0.4614,0.4632,0.4406,0.4406,0.4406,0,0.4118,0.4123,0.4121,0.4143,0.4144,0.4154,0.4143,0.418,0.418,0.416,0.4168,0.4191,0.42,0.4247,0.427,0.425,0.4371,0.4311,0.4317,0.4326,0.441,0.4427,0.4443,0.4241,0.424,0.424,0,0,0.4109,0.4116,0.4121,0.4136,0.4149,0.4134,0.415,0.4147,0.4153,0.4153,0.4154,0.4158,0.4182,0.4198,0.4221,0.4258,0.4284,0.4292,0.43,0.4306,0.4319,0.4404,0.4421,0.4238,0.4238,0.4238,0,0,0.4107,0.4102,0.407,0.4092,0.4113,0.4116,0.4144,0.4125,0.4131,0.412,0.4108,0.4113,0.4166,0.4161,0.4138,0.422,0.4187,0.4192,0.4224,0.4233,0.4241,0.4252,0.4123,0,0,0,0,0,0.4074,0.4101,0.4072,0.4073,0.4067,0.4115,0.4117,0.4118,0.408,0.4111,0.4096,0.4093,0.4152,0.4131,0.4135,0.4179,0.4216,0.422,0.4223,0.4275,0.4285,0.4293,0,0,0,0,0,0,0.4074,0.4073,0.4073,0.407,0.4071,0.4111,0.4066,0.4065,0.408,0.4079,0.4089,0.4092,0.4091,0.4128,0.4132,0.4175,0.4122,0.4217,0.4221,0.4224,0.4278,0.4286,0.4293,0,0,0,0,0,0.4075,0.4074,0.4061,0.4071,0.4071,0.408,0.4065,0.4064,0.4067,0.4083,0.4085,0.4074,0.4091,0.4096,0.4131,0.4173,0.4119,0.4121,0.4219,0.4222,0.4224,0.4282,0,0,0,0,0,0,0.4076,0.406,0.4061,0.4063,0.4075,0.408,0.4078,0.4064,0.4069,0.4073,0.4068,0.4067,0.409,0.4094,0.4098,0.4174,0.4117,0.4118,0.4119,0.4221,0.4224,0.4225,0,0,0,0,0,0,0.4062,0.406,0.4061,0.4066,0.4067,0.408,0.4078,0.4095,0.407,0.4051,0.4052,0.4068,0.4104,0.4093,0.4096,0.4121,0.4115,0.4116,0.4117,0.4118,0.4223,0.4225,0,0,0,0,0,0,0.4061,0.406,0.4064,0.4065,0.4066,0.4074,0.4096,0.4095,0.4057,0.4051,0.4057,0.4058,0.4105,0.4107,0.4095,0.4118,0.412,0.4115,0.4116,0.4117,0.4117,0,0,0,0,0,0,0,0.4061,0.4064,0.4065,0.4065,0.4066,0.4078,0.4078,0.4077,0.4057,0.4057,0.4057,0.4057,0.4106,0.4107,0.4109,0.4116,0,0,0.4115,0.4115,0,0,0,0,0,0,0,0,0.4065,0.4064,0.4065,0.4066,0.4067,0.4078,0.4078,0.4077,0.4057,0.4057,0.4057,0.4057,0.4106,0.4107,0.4109,0,0,0,0,0,0,0,0,0,0,0,0,0,0,0,0.4065,0.4066,0,0.4078,0.4078,0.4077,0.4057,0.4057,0.4057,0.4057,0.4106,0.4108,0.4109,0,0,0,0,0,0,0,0,0,0,0,0,0,0,0,0,0,0,0,0,0,0,0,0,0,0,0,0,0,0,0,0,0,0,0,0,0,0,0,0,0,0,0,0,0,0,0,0,0,0,0,0,0,0,0,0,0,0,0,0,0,0,0,0,0,0,0,0,0]}],[{"header":{"parameterUnit":"kt","parameterCategory":2,"dx":1,"dy":1,"la1":30.253999710083008,"la2":30.299108505249023,"lo1":-89.0895004272461,"lo2":-89.04439544677734,"nx":28,"ny":28,"refTime":"2022-10-28T21:00:00:Z","depth":"0","parameterNumber":3,"parameterNumberName":"V-component_of_CURRENTS"},"data":[0.1539,0.177,0.1823,0.2176,0.2365,0.2607,0.2727,0.2893,0.303,0.3194,0.3271,0.3322,0.3253,0.221,0.1433,0.1117,0.0773,0.0692,0.0439,0.0557,0.0555,0.0552,0.0587,0.0574,0.0573,0.0345,0.0343,0.0341,0.1397,0.1516,0.1735,0.2015,0.2258,0.2324,0.2618,0.2737,0.2951,0.3129,0.3157,0.3135,0.2704,0.2168,0.1592,0.1096,0.0816,0.0774,0.0784,0.0699,0.0871,0.0926,0.0984,0.0984,0.0984,0.0985,0.0985,0.0985,0.1205,0.132,0.1533,0.1741,0.1977,0.2225,0.2363,0.2623,0.2839,0.298,0.2986,0.2939,0.2687,0.1989,0.1523,0.0964,0.0932,0.0801,0.0746,0.0736,0.0703,0.0927,0.0934,0.0932,0.093,0.0929,0.0928,0,0.1084,0.1147,0.1288,0.1526,0.1716,0.1918,0.2139,0.2302,0.2461,0.2562,0.2704,0.2667,0.2342,0.2048,0.1495,0.1183,0.0783,0.0803,0.0646,0.0758,0.0785,0.0672,0.0837,0.0874,0.0871,0.087,0.0869,0.0868,0.1001,0.1063,0.123,0.1357,0.1417,0.159,0.1754,0.185,0.204,0.2184,0.2312,0.2198,0.2169,0.1745,0.1349,0.0923,0.074,0.0764,0.0714,0.0601,0.0511,0.05,0.0433,0.0843,0.0847,0.0849,0.0851,0,0.0963,0.1003,0.113,0.1237,0.1278,0.1391,0.1598,0.1756,0.1793,0.1988,0.1998,0.1948,0.1791,0.1471,0.1171,0.0958,0.0688,0.0629,0.0803,0.0779,0.0563,0.0515,0.0475,0.0397,0.0507,0.0507,0.0508,0,0.0902,0.0972,0.1046,0.1103,0.1239,0.1278,0.145,0.1476,0.1585,0.1742,0.1601,0.1694,0.1385,0.1266,0.1015,0.0813,0.0809,0.0607,0.056,0.0686,0.0698,0.0542,0.0491,0.0548,0.0548,0.0549,0.055,0,0.0825,0.0917,0.1009,0.1042,0.1139,0.1194,0.1254,0.1318,0.142,0.1428,0.1491,0.1373,0.1354,0.1158,0.0939,0.0906,0.0762,0.068,0.057,0.057,0.0638,0.0645,0.0582,0.0551,0.0551,0.0551,0.0551,0,0.0771,0.0823,0.0918,0.1032,0.1057,0.1103,0.121,0.1258,0.1293,0.1303,0.128,0.1218,0.1148,0.1043,0.0874,0.0903,0.076,0.066,0.0653,0.064,0.0566,0.0641,0.0708,0.0579,0.0546,0.0547,0.0547,0,0.0716,0.0798,0.0816,0.0909,0.0962,0.0974,0.1022,0.1053,0.1071,0.1108,0.1033,0.1035,0.0923,0.0909,0.0848,0.0737,0.0682,0.0713,0.0543,0.0538,0.0578,0.0626,0.0769,0.0709,0.0553,0.0552,0.0552,0,0.0675,0.0741,0.0749,0.0793,0.0821,0.0861,0.0893,0.0934,0.0981,0.0939,0.0983,0.0902,0.0861,0.0826,0.075,0.0705,0.0685,0.0636,0.063,0.0617,0.0596,0.0628,0.0626,0.0644,0.0644,0.0644,0.0557,0,0.0659,0.0692,0.0719,0.0743,0.0768,0.081,0.081,0.0827,0.0812,0.0805,0.0806,0.073,0.0692,0.0662,0.0611,0.0606,0.0573,0.0528,0.0492,0.053,0.0483,0.048,0.0482,0.048,0.0478,0.0477,0,0,0.0607,0.0643,0.0642,0.0671,0.0695,0.0669,0.0705,0.0701,0.0684,0.0697,0.0662,0.0599,0.0542,0.0535,0.054,0.0504,0.0471,0.0511,0.0507,0.0511,0.0514,0.0473,0.0472,0.0473,0.0473,0.0472,0.0471,0,0.0599,0.0604,0.063,0.0642,0.0652,0.0646,0.0655,0.0643,0.0639,0.0641,0.0579,0.055,0.051,0.0475,0.0449,0.0481,0.0423,0.0464,0.0537,0.0492,0.0499,0.0504,0.0465,0.0466,0.0467,0.0467,0.0467,0,0.0558,0.0565,0.0574,0.0588,0.0581,0.06,0.0557,0.0578,0.0591,0.0511,0.0514,0.047,0.0411,0.041,0.0402,0.038,0.0375,0.0377,0.0385,0.0399,0.0349,0.0357,0.0363,0.028,0.028,0.028,0,0,0.0545,0.0569,0.056,0.0581,0.0585,0.0557,0.0558,0.0546,0.0528,0.0517,0.0481,0.0435,0.0407,0.0394,0.0364,0.036,0.0318,0.036,0.0369,0.0377,0.0395,0.0348,0.0355,0.028,0.028,0.028,0,0,0.0537,0.0539,0.0515,0.0542,0.0543,0.0526,0.0542,0.0514,0.0493,0.0485,0.0427,0.0418,0.0413,0.0371,0.0375,0.0355,0.031,0.0309,0.0405,0.0415,0.0423,0.0456,0.0328,0,0,0,0,0,0.051,0.0542,0.0519,0.052,0.0511,0.0532,0.0529,0.0507,0.0474,0.0492,0.045,0.0416,0.0362,0.0365,0.0356,0.0376,0.0278,0.0278,0.0279,0.0399,0.041,0.042,0,0,0,0,0,0,0.0511,0.0512,0.0519,0.0503,0.0501,0.0529,0.0482,0.0476,0.0473,0.0469,0.0423,0.0415,0.0382,0.0366,0.0359,0.0379,0.033,0.0278,0.0278,0.0279,0.0403,0.0412,0.042,0,0,0,0,0,0.0511,0.0512,0.0506,0.0502,0.05,0.0479,0.0481,0.0476,0.0468,0.0427,0.0419,0.0455,0.0383,0.0374,0.0361,0.0384,0.0335,0.0332,0.0278,0.0278,0.0279,0.0407,0,0,0,0,0,0,0.0511,0.0496,0.0504,0.0503,0.0499,0.0477,0.0474,0.0476,0.0425,0.0418,0.0457,0.0454,0.0384,0.0377,0.037,0.0389,0.0339,0.0336,0.0334,0.0278,0.0279,0.0279,0,0,0,0,0,0,0.0495,0.0494,0.0503,0.0501,0.0498,0.0476,0.0473,0.0448,0.0423,0.0455,0.0452,0.0456,0.039,0.0379,0.0373,0.0335,0.0342,0.0339,0.0337,0.0336,0.0279,0.0279,0,0,0,0,0,0,0.0494,0.0493,0.0501,0.0499,0.0497,0.0471,0.0452,0.0437,0.044,0.0456,0.0439,0.0438,0.0392,0.0387,0.0376,0.034,0.0337,0.0342,0.034,0.0339,0.0338,0,0,0,0,0,0,0,0.0493,0.0508,0.0521,0.0497,0.0495,0.0488,0.0487,0.0486,0.044,0.0439,0.0439,0.0438,0.0356,0.0353,0.0351,0.0344,0,0,0.0342,0.0341,0,0,0,0,0,0,0,0,0.0507,0.0508,0.0521,0.0521,0.0521,0.0488,0.0487,0.0486,0.044,0.0439,0.0439,0.0438,0.0355,0.0353,0.0351,0,0,0,0,0,0,0,0,0,0,0,0,0,0,0,0.0521,0.0521,0,0.0488,0.0487,0.0486,0.044,0.0439,0.0439,0.0439,0.0355,0.0353,0.0351,0,0,0,0,0,0,0,0,0,0,0,0,0,0,0,0,0,0,0,0,0,0,0,0,0,0,0,0,0,0,0,0,0,0,0,0,0,0,0,0,0,0,0,0,0,0,0,0,0,0,0,0,0,0,0,0,0,0,0,0,0,0,0,0,0,0,0,0,0]}]],[[{"header":{"parameterUnit":"kt","parameterCategory":2,"dx":1,"dy":1,"la1":30.253999710083008,"la2":30.299108505249023,"lo1":-89.0895004272461,"lo2":-89.04439544677734,"nx":28,"ny":28,"refTime":"2022-10-28T21:00:00:Z","depth":"2","parameterNumber":2,"parameterNumberName":"U-component_of_CURRENTS"},"data":[0.4337,0.4332,0.4303,0.4244,0.4246,0.4108,0.4018,0.3802,0.371,0.3464,0.3303,0.3415,0.3501,0.2907,0.2829,0.2568,0.2814,0.2467,0.3828,0.3577,0.3639,0.3785,0.3557,0,0,0,0,0,0.429,0.432,0.4377,0.4365,0.4374,0.4391,0.4379,0.4249,0.4156,0.4202,0.4158,0.3753,0.3556,0.36,0.3321,0.3375,0.3228,0.3294,0.3014,0.3092,0.3161,0.2953,0.2405,0.24,0.2396,0.2391,0,0,0.4259,0.4296,0.435,0.4363,0.4443,0.4415,0.4365,0.4453,0.4492,0.4503,0.4731,0.4611,0.4635,0.441,0.4278,0.4208,0.4571,0.4375,0.439,0.4416,0.4283,0.4175,0.4083,0.409,0.4095,0.4101,0.4105,0,0.421,0.4229,0.4279,0.4316,0.4381,0.4411,0.4496,0.4567,0.4712,0.4815,0.4953,0.5005,0.5157,0.4916,0.4971,0.4909,0.4926,0.4818,0.5532,0.431,0.4191,0.4172,0.4191,0.413,0.4138,0.4143,0.4147,0.415,0.4177,0.4186,0.4226,0.4269,0.4283,0.4348,0.4423,0.4518,0.4629,0.488,0.4978,0.5189,0.526,0.5441,0.5378,0.5358,0.5501,0.4976,0.4795,0.5334,0.532,0.5302,0.5285,0.4229,0.4219,0.421,0.4204,0,0.4182,0.4181,0.421,0.4245,0.4253,0.4298,0.4403,0.4508,0.4624,0.4799,0.4852,0.5075,0.5225,0.5293,0.5416,0.5406,0.5454,0.5458,0.4888,0.4825,0.5295,0.5278,0.5462,0.5462,0.5462,0.5462,0.5462,0,0.417,0.4189,0.4194,0.4207,0.4253,0.4288,0.4381,0.4439,0.4585,0.4719,0.481,0.4948,0.5047,0.5176,0.5177,0.5281,0.5347,0.525,0.5255,0.4778,0.4733,0.5182,0.5164,0.5331,0.533,0.5329,0.5328,0,0.4165,0.4179,0.4192,0.4204,0.4251,0.428,0.432,0.4442,0.453,0.4661,0.477,0.4876,0.4975,0.5036,0.5109,0.5064,0.5279,0.5217,0.5206,0.5201,0.4774,0.4727,0.5327,0.5327,0.5327,0.5326,0.5326,0,0.4156,0.4171,0.4176,0.4222,0.4236,0.425,0.4366,0.4405,0.4542,0.4611,0.4719,0.4771,0.4867,0.4829,0.4984,0.4936,0.4969,0.4997,0.5003,0.4959,0.4903,0.4525,0.4541,0.503,0.5027,0.5025,0.5022,0,0.416,0.4162,0.4182,0.4202,0.4219,0.427,0.4309,0.4381,0.4459,0.4544,0.4611,0.4677,0.466,0.4689,0.4753,0.4801,0.4861,0.4768,0.4905,0.4909,0.4859,0.4979,0.4449,0.4523,0.4992,0.4995,0.4997,0,0.4173,0.4187,0.4196,0.4192,0.4236,0.4272,0.4306,0.4378,0.4421,0.4476,0.4547,0.4589,0.4629,0.4639,0.4632,0.4689,0.4804,0.4684,0.4687,0.473,0.4983,0.494,0.4956,0.483,0.4834,0.4837,0.4973,0,0.4174,0.418,0.4203,0.4194,0.4232,0.4271,0.4294,0.4332,0.435,0.4377,0.4465,0.4474,0.452,0.4527,0.4505,0.4602,0.4601,0.4589,0.4559,0.4636,0.4681,0.47,0.4454,0.4453,0.4452,0.4451,0,0,0.4172,0.4173,0.4205,0.421,0.4233,0.4254,0.4261,0.4276,0.4293,0.4329,0.4319,0.4381,0.438,0.4433,0.4453,0.4451,0.4496,0.4451,0.4585,0.46,0.4614,0.4662,0.4681,0.445,0.4449,0.4449,0.4449,0,0.417,0.4188,0.4186,0.4209,0.4234,0.4239,0.4253,0.4261,0.4271,0.4296,0.4273,0.4316,0.4344,0.4358,0.4365,0.4432,0.445,0.4447,0.4494,0.4574,0.459,0.4605,0.4654,0.4673,0.4446,0.4447,0.4447,0,0.4147,0.4155,0.4154,0.4182,0.4183,0.4192,0.4181,0.422,0.4221,0.4198,0.4206,0.4228,0.4235,0.4283,0.4306,0.4285,0.4406,0.4346,0.4352,0.4363,0.4445,0.4463,0.4479,0.4274,0.4273,0.4273,0,0,0.4136,0.4148,0.4154,0.4174,0.4188,0.4172,0.4187,0.4184,0.4191,0.4192,0.4191,0.4194,0.4217,0.4232,0.4256,0.4292,0.4318,0.4326,0.4334,0.4341,0.4355,0.4438,0.4455,0.4271,0.4271,0.4271,0,0,0.4133,0.413,0.4097,0.4127,0.4149,0.4151,0.4181,0.416,0.4168,0.4156,0.4141,0.4146,0.4199,0.4195,0.4168,0.4252,0.4218,0.4223,0.4253,0.4263,0.4271,0.4283,0.4149,0,0,0,0,0,0.4094,0.4129,0.4098,0.4101,0.4099,0.415,0.4152,0.4152,0.4113,0.4147,0.4131,0.4124,0.4185,0.4161,0.4165,0.4207,0.4245,0.425,0.4254,0.4302,0.4313,0.4322,0,0,0,0,0,0,0.4095,0.4096,0.4099,0.4097,0.4098,0.4146,0.4097,0.4097,0.4112,0.4111,0.412,0.4123,0.412,0.4159,0.4163,0.4203,0.4148,0.4247,0.4251,0.4254,0.4306,0.4315,0.4322,0,0,0,0,0,0.4096,0.4097,0.4093,0.4097,0.4098,0.4106,0.4097,0.4096,0.41,0.4113,0.4115,0.4107,0.412,0.4124,0.4161,0.4202,0.4145,0.4147,0.425,0.4253,0.4255,0.431,0,0,0,0,0,0,0.4097,0.4082,0.4093,0.4095,0.4101,0.4106,0.4104,0.4096,0.41,0.4103,0.4099,0.4099,0.4119,0.4123,0.4127,0.4202,0.4143,0.4145,0.4146,0.4252,0.4254,0.4256,0,0,0,0,0,0,0.4083,0.4082,0.4093,0.4098,0.4099,0.4105,0.4104,0.4119,0.4101,0.4084,0.4085,0.41,0.4133,0.4122,0.4125,0.4146,0.4142,0.4143,0.4144,0.4145,0.4254,0.4256,0,0,0,0,0,0,0.4083,0.4082,0.4097,0.4098,0.4099,0.4105,0.4119,0.4123,0.4089,0.4084,0.409,0.409,0.4133,0.4135,0.4124,0.4144,0.4145,0.4142,0.4143,0.4143,0.4144,0,0,0,0,0,0,0,0.4083,0.4082,0.4098,0.4098,0.4099,0.4108,0.4108,0.4107,0.4089,0.4089,0.409,0.409,0.4134,0.4135,0.4137,0.4141,0,0,0.4142,0.4142,0,0,0,0,0,0,0,0,0.4083,0.4082,0.4098,0.4099,0.41,0.4108,0.4108,0.4107,0.4089,0.4089,0.4089,0.409,0.4134,0.4135,0.4137,0,0,0,0,0,0,0,0,0,0,0,0,0,0,0,0.4098,0.4099,0,0.4108,0.4108,0.4107,0.4089,0.4089,0.4089,0.409,0.4135,0.4136,0.4137,0,0,0,0,0,0,0,0,0,0,0,0,0,0,0,0,0,0,0,0,0,0,0,0,0,0,0,0,0,0,0,0,0,0,0,0,0,0,0,0,0,0,0,0,0,0,0,0,0,0,0,0,0,0,0,0,0,0,0,0,0,0,0,0,0,0,0,0,0]}],[{"header":{"parameterUnit":"kt","parameterCategory":2,"dx":1,"dy":1,"la1":30.253999710083008,"la2":30.299108505249023,"lo1":-89.0895004272461,"lo2":-89.04439544677734,"nx":28,"ny":28,"refTime":"2022-10-28T21:00:00:Z","depth":"2","parameterNumber":3,"parameterNumberName":"V-component_of_CURRENTS"},"data":[0.1082,0.1185,0.1292,0.1575,0.1766,0.2068,0.2255,0.2271,0.2353,0.2384,0.2334,0.224,0.1798,0.1258,0.0775,0.0405,0.0333,0.0312,0.0562,0.0563,0.0575,0.0241,0.0286,0,0,0,0,0,0.1036,0.1193,0.1362,0.1571,0.1754,0.1895,0.2212,0.2317,0.2524,0.2611,0.2658,0.2171,0.1759,0.1301,0.0607,0.0258,0.0161,0.0159,0.0105,0.0115,0.0123,0.0141,0.0033,0.0032,0.0031,0.0029,0,0,0.1002,0.1118,0.1246,0.1443,0.1645,0.188,0.2053,0.2243,0.2466,0.258,0.2631,0.2527,0.2117,0.1338,0.0922,0.047,0.0509,0.0323,0.0323,0.0325,0.0356,0.0383,0.0305,0.0306,0.0306,0.0307,0.0307,0,0.0935,0.1009,0.1145,0.1303,0.148,0.1716,0.1911,0.203,0.2197,0.2359,0.2492,0.2447,0.2064,0.1624,0.1083,0.0797,0.0527,0.0446,0.0545,0.0336,0.0359,0.0314,0.032,0.0272,0.0273,0.0273,0.0273,0.0274,0.0837,0.091,0.1094,0.1209,0.1281,0.1455,0.1604,0.1712,0.1874,0.2037,0.2139,0.2046,0.1992,0.1585,0.1151,0.073,0.0695,0.0467,0.0393,0.0494,0.0448,0.0451,0.0453,0.0281,0.028,0.0279,0.0279,0,0.08,0.0851,0.0997,0.1123,0.1165,0.1282,0.1482,0.1628,0.1679,0.1864,0.1874,0.1823,0.1672,0.1375,0.108,0.0873,0.0637,0.0549,0.0518,0.047,0.0449,0.0452,0.0426,0.0426,0.0427,0.0427,0.0427,0,0.0747,0.0834,0.0923,0.0989,0.1131,0.1174,0.1345,0.1376,0.1484,0.1634,0.151,0.1588,0.1298,0.118,0.0937,0.0737,0.0732,0.0533,0.0485,0.0432,0.0429,0.0433,0.0429,0.0476,0.0477,0.0478,0.0478,0,0.0691,0.0789,0.0887,0.0924,0.1035,0.1094,0.1155,0.1227,0.1326,0.1342,0.1404,0.1292,0.1268,0.1079,0.0863,0.0831,0.0687,0.0606,0.0495,0.0494,0.0388,0.0379,0.0479,0.0479,0.0479,0.048,0.048,0,0.0649,0.0713,0.0808,0.0928,0.0953,0.1002,0.1118,0.1167,0.1208,0.1222,0.1202,0.1141,0.1072,0.097,0.0802,0.0831,0.0689,0.0589,0.0582,0.0567,0.0488,0.037,0.0399,0.047,0.047,0.0471,0.0471,0,0.061,0.0691,0.0716,0.0809,0.0863,0.0883,0.0934,0.097,0.0994,0.1034,0.0961,0.0961,0.0852,0.0836,0.0777,0.0663,0.061,0.0641,0.0468,0.0463,0.0495,0.0549,0.0488,0.0408,0.0477,0.0476,0.0476,0,0.0576,0.0649,0.0658,0.0701,0.0737,0.0779,0.0813,0.0859,0.0907,0.0869,0.0911,0.0831,0.079,0.0753,0.0676,0.0632,0.0612,0.0562,0.0556,0.0536,0.0522,0.0551,0.0549,0.057,0.057,0.057,0.048,0,0.0566,0.0605,0.0634,0.0658,0.0685,0.0731,0.0733,0.0754,0.0743,0.0734,0.0738,0.066,0.062,0.0588,0.0536,0.053,0.0497,0.045,0.0407,0.0453,0.0404,0.0401,0.0402,0.04,0.0398,0.0396,0,0,0.0517,0.0561,0.0566,0.0592,0.0618,0.0597,0.0631,0.0628,0.0612,0.0625,0.0592,0.0524,0.0464,0.0452,0.0461,0.0425,0.0391,0.0426,0.0429,0.0433,0.0436,0.0394,0.0393,0.0393,0.0392,0.0392,0.0391,0,0.0511,0.0528,0.0552,0.0567,0.0577,0.0572,0.0583,0.0569,0.0566,0.0569,0.0502,0.0474,0.0429,0.039,0.0361,0.0401,0.0334,0.0383,0.046,0.0414,0.0421,0.0426,0.0386,0.0387,0.0386,0.0387,0.0387,0,0.0468,0.048,0.049,0.0513,0.0503,0.0521,0.0476,0.0499,0.0511,0.0427,0.0429,0.0382,0.032,0.0318,0.031,0.0286,0.028,0.0282,0.029,0.0304,0.0253,0.0262,0.0269,0.0178,0.0178,0.0177,0,0,0.0453,0.0482,0.0475,0.0504,0.051,0.0476,0.0478,0.0464,0.0444,0.0433,0.0393,0.0345,0.0313,0.03,0.0268,0.0263,0.0219,0.0262,0.0271,0.028,0.0299,0.0251,0.0259,0.0177,0.0177,0.0177,0,0,0.0441,0.0447,0.0422,0.0461,0.0463,0.044,0.0456,0.0427,0.0405,0.0396,0.0332,0.0321,0.0318,0.0274,0.0273,0.0252,0.0204,0.0204,0.0298,0.0309,0.0319,0.0352,0.0212,0,0,0,0,0,0.0408,0.0449,0.0426,0.0429,0.0423,0.0446,0.0443,0.0417,0.038,0.0401,0.0357,0.0315,0.0262,0.0261,0.025,0.0267,0.0168,0.017,0.0171,0.029,0.0303,0.0313,0,0,0,0,0,0,0.0409,0.0413,0.0425,0.0407,0.0405,0.0443,0.0389,0.0382,0.0379,0.0375,0.0322,0.0313,0.0274,0.0262,0.0253,0.027,0.0215,0.0169,0.017,0.0171,0.0294,0.0305,0.0313,0,0,0,0,0,0.041,0.0413,0.0418,0.0405,0.0403,0.0378,0.0388,0.0382,0.0374,0.0326,0.0316,0.036,0.0275,0.0265,0.0256,0.0276,0.0221,0.0218,0.017,0.0171,0.0172,0.0299,0,0,0,0,0,0,0.0411,0.039,0.0416,0.0413,0.0404,0.0376,0.0373,0.0383,0.0322,0.0315,0.0359,0.0357,0.0275,0.0267,0.026,0.0282,0.0225,0.0222,0.022,0.0171,0.0171,0.0172,0,0,0,0,0,0,0.0389,0.0389,0.0414,0.0415,0.0412,0.0374,0.0372,0.0342,0.0321,0.0357,0.0355,0.0359,0.0285,0.0269,0.0263,0.0217,0.0229,0.0226,0.0224,0.0222,0.0171,0.0172,0,0,0,0,0,0,0.0388,0.0387,0.0414,0.0412,0.041,0.0376,0.0345,0.0336,0.0339,0.0359,0.0338,0.0337,0.0288,0.0281,0.0266,0.0223,0.0219,0.0229,0.0227,0.0225,0.0224,0,0,0,0,0,0,0,0.0387,0.0401,0.0438,0.041,0.0408,0.0394,0.0392,0.0391,0.0339,0.0338,0.0338,0.0338,0.0246,0.0243,0.0239,0.0227,0,0,0.0229,0.0228,0,0,0,0,0,0,0,0,0.04,0.0401,0.0438,0.0438,0.0438,0.0393,0.0392,0.0391,0.0339,0.0338,0.0338,0.0338,0.0245,0.0242,0.024,0,0,0,0,0,0,0,0,0,0,0,0,0,0,0,0.0438,0.0438,0,0.0393,0.0392,0.0391,0.0339,0.0338,0.0338,0.0338,0.0244,0.0242,0.024,0,0,0,0,0,0,0,0,0,0,0,0,0,0,0,0,0,0,0,0,0,0,0,0,0,0,0,0,0,0,0,0,0,0,0,0,0,0,0,0,0,0,0,0,0,0,0,0,0,0,0,0,0,0,0,0,0,0,0,0,0,0,0,0,0,0,0,0,0]}]],[[{"header":{"parameterUnit":"kt","parameterCategory":2,"dx":1,"dy":1,"la1":30.253999710083008,"la2":30.299108505249023,"lo1":-89.0895004272461,"lo2":-89.04439544677734,"nx":28,"ny":28,"refTime":"2022-10-28T21:00:00:Z","depth":"4","parameterNumber":2,"parameterNumberName":"U-component_of_CURRENTS"},"data":[0.2098,0.2152,0.2145,0.2087,0.2074,0.2152,0.2235,0.2386,0.2371,0.2617,0.2668,0.2859,0.297,0.3148,0.3082,0.3114,0.3093,0.3439,0.3429,0.3549,0.3579,0.3605,0.3453,0,0,0,0,0,0.2175,0.2161,0.2211,0.2234,0.2345,0.2392,0.2545,0.2654,0.2878,0.283,0.2981,0.3064,0.3118,0.3231,0.3141,0.3419,0.352,0.3295,0.338,0.3568,0.36,0.3441,0,0,0,0,0,0,0.2257,0.2277,0.2373,0.2422,0.2527,0.2538,0.2634,0.2729,0.2834,0.3138,0.3145,0.3367,0.3589,0.3549,0.3583,0.3566,0.3501,0.336,0.3401,0.3434,0.3272,0.3095,0.2913,0,0,0,0,0,0.2318,0.2408,0.2476,0.2564,0.2654,0.2737,0.2885,0.292,0.3161,0.3393,0.3452,0.3505,0.3633,0.3706,0.3753,0.3749,0.3962,0.3874,0.3889,0.3795,0.37,0.369,0.3696,0.3722,0.3726,0.3729,0.3731,0,0.2417,0.2452,0.2631,0.2673,0.2756,0.2899,0.2979,0.3201,0.3289,0.3571,0.3606,0.3825,0.3932,0.3891,0.4041,0.405,0.4003,0.3959,0.3859,0.3751,0.3734,0.3732,0.3728,0.3757,0.3754,0.3752,0.375,0,0.2476,0.257,0.2653,0.2827,0.2879,0.2959,0.3159,0.3247,0.3454,0.359,0.3663,0.3885,0.4008,0.4136,0.4273,0.4151,0.4146,0.4079,0.4296,0.4292,0.3783,0.3769,0.3799,0.379,0.3782,0.3775,0.3769,0,0.2585,0.2642,0.2802,0.2827,0.2921,0.3044,0.317,0.328,0.3469,0.3565,0.3736,0.3823,0.402,0.4128,0.4148,0.4106,0.4299,0.3984,0.3966,0.4191,0.4177,0.4166,0.4147,0.4323,0.4322,0.4322,0.4321,0,0.2631,0.2749,0.2809,0.2845,0.2974,0.3054,0.3146,0.3306,0.3391,0.3585,0.368,0.3837,0.3954,0.403,0.4101,0.4078,0.4248,0.4225,0.398,0.396,0.4155,0.4138,0.432,0.432,0.432,0.432,0.432,0,0.2692,0.2745,0.2824,0.2923,0.2952,0.3029,0.3172,0.3255,0.3422,0.3505,0.3641,0.3714,0.3857,0.3828,0.3999,0.3958,0.3988,0.402,0.4024,0.3724,0.366,0.3882,0.4033,0.403,0.4028,0.4026,0.4024,0,0.2691,0.2765,0.2802,0.2888,0.2926,0.3008,0.3093,0.3196,0.329,0.3406,0.3504,0.3627,0.3627,0.3698,0.3768,0.3848,0.3901,0.3824,0.3919,0.3921,0.3648,0.3723,0.3908,0.3994,0.3998,0.4001,0.4003,0,0.2663,0.274,0.2755,0.2801,0.2894,0.2919,0.3024,0.3118,0.3207,0.3301,0.3415,0.3536,0.3581,0.3623,0.366,0.3724,0.385,0.3715,0.3717,0.3737,0.4012,0.3721,0.3711,0.389,0.3893,0.3896,0.3981,0,0.2668,0.2716,0.2732,0.2813,0.2852,0.2893,0.2958,0.3027,0.3102,0.3162,0.3301,0.336,0.3462,0.3497,0.3507,0.3639,0.3618,0.3616,0.3566,0.3661,0.3681,0.3698,0.3468,0.3467,0.3465,0.3464,0,0,0.2647,0.2676,0.27,0.2743,0.2779,0.2832,0.2881,0.2935,0.3017,0.3071,0.3083,0.3256,0.3293,0.3415,0.3453,0.3463,0.349,0.3446,0.3604,0.362,0.3634,0.3659,0.3677,0.3461,0.346,0.346,0.3459,0,0.2622,0.2658,0.2689,0.2723,0.2783,0.281,0.2837,0.2894,0.2949,0.3036,0.3086,0.3172,0.3248,0.3299,0.3336,0.3433,0.3433,0.3456,0.3503,0.3588,0.3606,0.3622,0.3649,0.3667,0.3455,0.3456,0.3456,0,0.2616,0.264,0.2657,0.2699,0.2739,0.2781,0.2797,0.2848,0.2907,0.2926,0.3031,0.3081,0.3128,0.3209,0.325,0.3218,0.3367,0.3312,0.332,0.331,0.3395,0.3415,0.3434,0.3201,0.32,0.3199,0,0,0.2614,0.2639,0.2671,0.2697,0.2717,0.2773,0.2801,0.2842,0.2891,0.293,0.2975,0.3035,0.3101,0.3133,0.3174,0.3233,0.3239,0.3282,0.3294,0.3304,0.33,0.3387,0.3407,0.3197,0.3197,0.3197,0,0,0.2604,0.2637,0.2677,0.2698,0.2734,0.2761,0.2793,0.2837,0.291,0.2945,0.2974,0.2987,0.3082,0.3076,0.3042,0.3171,0.3119,0.3126,0.3181,0.3196,0.3208,0.3195,0.3025,0,0,0,0,0,0.2619,0.2625,0.2661,0.267,0.2726,0.2744,0.2754,0.2809,0.2859,0.2886,0.295,0.2949,0.3068,0.3037,0.3045,0.3111,0.3165,0.317,0.3176,0.3262,0.3277,0.3291,0,0,0,0,0,0,0.2622,0.263,0.266,0.2682,0.2696,0.2743,0.2775,0.2791,0.2857,0.2868,0.2938,0.2948,0.2955,0.3033,0.304,0.3104,0.3023,0.3167,0.3172,0.3176,0.3267,0.328,0.3291,0,0,0,0,0,0.2624,0.2631,0.2709,0.2684,0.2695,0.2762,0.2777,0.279,0.2863,0.2879,0.2895,0.2909,0.2953,0.2964,0.3037,0.3102,0.3018,0.3021,0.317,0.3174,0.3177,0.3273,0,0,0,0,0,0,0.2626,0.2652,0.2713,0.2719,0.2695,0.2763,0.2776,0.2789,0.2874,0.2887,0.2844,0.285,0.2951,0.296,0.2968,0.3102,0.3014,0.3017,0.3018,0.3173,0.3176,0.3179,0,0,0,0,0,0,0.2648,0.2656,0.2716,0.2728,0.2736,0.2763,0.2775,0.2796,0.2874,0.2835,0.2842,0.2846,0.2937,0.2957,0.2964,0.2996,0.3011,0.3013,0.3015,0.3016,0.3175,0.3178,0,0,0,0,0,0,0.2653,0.266,0.2727,0.2733,0.274,0.281,0.2784,0.2843,0.2877,0.2831,0.2882,0.2884,0.2933,0.2941,0.296,0.2989,0.2994,0.3011,0.3013,0.3014,0.3015,0,0,0,0,0,0,0,0.2656,0.2595,0.2675,0.2737,0.2744,0.2769,0.2771,0.2773,0.2878,0.288,0.2882,0.2883,0.2996,0.2999,0.3002,0.2984,0,0,0.3011,0.3012,0,0,0,0,0,0,0,0,0.2594,0.2595,0.2675,0.2676,0.2676,0.2769,0.2771,0.2772,0.2878,0.288,0.2881,0.2883,0.2997,0.2999,0.3001,0,0,0,0,0,0,0,0,0,0,0,0,0,0,0,0.2675,0.2675,0,0.2769,0.2771,0.2772,0.2878,0.288,0.2881,0.2882,0.2997,0.2999,0.3001,0,0,0,0,0,0,0,0,0,0,0,0,0,0,0,0,0,0,0,0,0,0,0,0,0,0,0,0,0,0,0,0,0,0,0,0,0,0,0,0,0,0,0,0,0,0,0,0,0,0,0,0,0,0,0,0,0,0,0,0,0,0,0,0,0,0,0,0,0]}],[{"header":{"parameterUnit":"kt","parameterCategory":2,"dx":1,"dy":1,"la1":30.253999710083008,"la2":30.299108505249023,"lo1":-89.0895004272461,"lo2":-89.04439544677734,"nx":28,"ny":28,"refTime":"2022-10-28T21:00:00:Z","depth":"4","parameterNumber":3,"parameterNumberName":"V-component_of_CURRENTS"},"data":[0.0106,0.016,0.0216,0.0315,0.0375,0.0496,0.0595,0.0707,0.0762,0.0891,0.0785,0.0805,0.0582,0.0803,0.0368,0.0312,0.0189,-0.0006,-0.0012,-0.0155,-0.0147,-0.0141,-0.0076,0,0,0,0,0,0.0137,0.0167,0.0232,0.0321,0.0417,0.048,0.0635,0.0733,0.0895,0.0943,0.1012,0.0912,0.0682,0.0582,0.0386,0.0321,0.0083,0.0071,-0.0051,-0.015,-0.0142,-0.0081,0,0,0,0,0,0,0.015,0.0179,0.0254,0.034,0.0421,0.0523,0.0605,0.0746,0.0857,0.1026,0.102,0.0944,0.0921,0.0633,0.0425,0.0236,0.0165,0.0061,0.0058,0.0063,0.0141,0.0175,0.0109,0,0,0,0,0,0.0165,0.0201,0.0272,0.0355,0.0431,0.0542,0.0677,0.0745,0.0921,0.0993,0.1053,0.0947,0.0826,0.0627,0.0419,0.0198,0.0075,-0.0024,-0.0022,-0.0026,-0.0018,-0.0049,-0.0039,-0.0111,-0.011,-0.0109,-0.0108,0,0.0169,0.0212,0.0335,0.037,0.0432,0.055,0.0628,0.0769,0.086,0.0982,0.1011,0.0965,0.0923,0.0638,0.0458,0.0174,0.0113,-0.0001,-0.0005,-0.0004,-0.0039,-0.0031,-0.0023,-0.0102,-0.0102,-0.0103,-0.0103,0,0.0177,0.0234,0.0321,0.0452,0.0489,0.0557,0.0705,0.078,0.0869,0.0953,0.0969,0.096,0.085,0.0703,0.0505,0.0353,0.0171,0.0082,0.0197,0.016,-0.0014,-0.0009,-0.0091,-0.0093,-0.0095,-0.0097,-0.0098,0,0.0204,0.0263,0.0369,0.041,0.0501,0.058,0.068,0.073,0.082,0.0886,0.087,0.0881,0.0761,0.0663,0.0502,0.0307,0.0336,0.0142,0.0098,0.0198,0.0201,0.0144,0.0142,0.0177,0.0178,0.0179,0.018,0,0.019,0.0297,0.0364,0.0398,0.0505,0.0557,0.0618,0.0685,0.074,0.0786,0.0809,0.0772,0.0751,0.0628,0.0468,0.046,0.0316,0.0285,0.0131,0.0125,0.0149,0.0144,0.0181,0.0181,0.0182,0.0182,0.0182,0,0.0203,0.026,0.0342,0.0436,0.0458,0.0511,0.0597,0.0651,0.0693,0.0703,0.0705,0.0669,0.0645,0.0574,0.0457,0.0484,0.0369,0.0293,0.0286,0.02,0.014,0.0125,0.0176,0.0177,0.0177,0.0178,0.0178,0,0.0176,0.0251,0.0277,0.0359,0.0401,0.0427,0.0485,0.0522,0.0539,0.0568,0.0536,0.055,0.0487,0.0484,0.045,0.037,0.0327,0.0366,0.0198,0.0193,0.015,0.0185,0.0311,0.0188,0.0187,0.0186,0.0185,0,0.0136,0.0199,0.0206,0.025,0.0295,0.0313,0.0372,0.0415,0.0459,0.044,0.0482,0.0464,0.0426,0.0416,0.0379,0.0351,0.0333,0.0288,0.0284,0.0239,0.0245,0.0199,0.0189,0.0311,0.0311,0.0311,0.0192,0,0.0137,0.0171,0.018,0.0232,0.025,0.0273,0.0296,0.0312,0.0314,0.032,0.0335,0.0297,0.0289,0.0279,0.0256,0.027,0.0225,0.02,0.0153,0.0204,0.0142,0.0137,0.0159,0.0157,0.0155,0.0153,0,0,0.0101,0.0135,0.0124,0.0158,0.0179,0.0166,0.0207,0.0216,0.0214,0.0227,0.0201,0.0189,0.0154,0.0184,0.0203,0.0178,0.0136,0.0159,0.0182,0.0186,0.0189,0.0133,0.0131,0.015,0.015,0.0149,0.0148,0,0.0097,0.0101,0.0122,0.0135,0.0148,0.0152,0.0159,0.0159,0.0165,0.0182,0.0159,0.015,0.012,0.0114,0.0108,0.0155,0.0077,0.0139,0.0199,0.0168,0.0174,0.0179,0.0127,0.0126,0.0144,0.0144,0.0145,0,0.0088,0.0096,0.0101,0.0116,0.0117,0.0145,0.0116,0.0119,0.0151,0.0092,0.0113,0.0083,0.0053,0.0058,0.0052,0.0028,0.0021,0.0027,0.0036,0.0033,-0.0003,0.0005,0.0012,-0.0077,-0.0078,-0.0078,0,0,0.009,0.01,0.0109,0.0117,0.012,0.0118,0.0116,0.0116,0.0108,0.0105,0.0077,0.0054,0.0046,0.0033,0.0007,0.0002,-0.0045,0.0005,0.0015,0.0024,0.0026,-0.0007,0.0001,-0.0079,-0.0079,-0.0079,0,0,0.0083,0.0095,0.0105,0.0115,0.0118,0.0107,0.0104,0.0104,0.0097,0.0098,0.0057,0.0047,0.0045,0.0005,-0.0004,-0.0008,-0.0056,-0.0056,0.0028,0.004,0.005,0.0063,-0.0062,0,0,0,0,0,0.009,0.0096,0.0105,0.0107,0.0112,0.011,0.0108,0.0098,0.0096,0.0098,0.0086,0.0041,0.0,-0.0009,-0.0021,-0.0004,-0.0096,-0.0093,-0.009,0.0016,0.0029,0.004,0,0,0,0,0,0,0.0091,0.0095,0.0104,0.0097,0.0098,0.011,0.0098,0.0095,0.0095,0.0094,0.0049,0.0039,0.0007,-0.0007,-0.0017,0.0,-0.0059,-0.0095,-0.0092,-0.009,0.002,0.0031,0.0041,0,0,0,0,0,0.0091,0.0094,0.011,0.0096,0.0097,0.0085,0.0098,0.0095,0.0097,0.0049,0.0041,0.0089,0.0008,-0.0003,-0.0014,0.0007,-0.0052,-0.0055,-0.0093,-0.0091,-0.0089,0.0026,0,0,0,0,0,0,0.0092,0.0088,0.011,0.0108,0.0094,0.0084,0.0084,0.0096,0.005,0.0044,0.0085,0.0084,0.0009,-0.0,-0.0008,0.0013,-0.0047,-0.005,-0.0052,-0.0092,-0.009,-0.0089,0,0,0,0,0,0,0.0086,0.0087,0.0109,0.0107,0.0106,0.0083,0.0083,0.0046,0.0048,0.0089,0.0087,0.0085,0.0005,0.0002,-0.0005,-0.006,-0.0042,-0.0046,-0.0048,-0.005,-0.009,-0.0089,0,0,0,0,0,0,0.0086,0.0087,0.0108,0.0106,0.0105,0.009,0.0047,0.0043,0.008,0.0089,0.0079,0.0079,0.0006,0.0,-0.0002,-0.0054,-0.0058,-0.0042,-0.0045,-0.0047,-0.0048,0,0,0,0,0,0,0,0.0086,0.0087,0.0117,0.0106,0.0105,0.0097,0.0096,0.0096,0.008,0.008,0.008,0.0079,-0.0023,-0.0026,-0.003,-0.0049,0,0,-0.0042,-0.0044,0,0,0,0,0,0,0,0,0.0085,0.0086,0.0117,0.0116,0.0116,0.0097,0.0096,0.0096,0.008,0.008,0.008,0.0079,-0.0024,-0.0027,-0.003,0,0,0,0,0,0,0,0,0,0,0,0,0,0,0,0.0117,0.0116,0,0.0097,0.0096,0.0096,0.008,0.008,0.008,0.0079,-0.0024,-0.0027,-0.003,0,0,0,0,0,0,0,0,0,0,0,0,0,0,0,0,0,0,0,0,0,0,0,0,0,0,0,0,0,0,0,0,0,0,0,0,0,0,0,0,0,0,0,0,0,0,0,0,0,0,0,0,0,0,0,0,0,0,0,0,0,0,0,0,0,0,0,0,0]}]]]